SCP
0 0 0 0 0 0 0 0 0 0 0 0 0 0 0 -0 -0 -0 -0 -0 -0 -0 -0 -0 -0 0 0
0 0 0 0 0 0 0 0 0 0 0 0 0 0 0 0 0 0 0 -0 -0 -0 -0 -0 0 0 0
0 0 0 0 0 0 0 0 0 0 0 0 0 0 0 0 0 0 0 0 0 0 0 0 0 0 0
0 0 0 0 0 0 0 0 0 0 0 0 0 0 0 0 0 0 0 0 0 0 -0 0 0 0 0
0 0 0 0 0 0 0 0 0 0 0 0 0 0 0 0 0 0 0 0 0 0 -0 -0 0 0 0
0 0 0 0 0 0 0 0 0 0 0 0 0 0 0 0 0 0 0 0 0 0 0 0 0 0 0
0 0 0 0 0 0 0 0 0 0 0 0 0 0 0 0 0 0 0 0 0 0 0 0 0 0 0
0 0 0 0 0 0 0 0 0 0 0 0 0 0 0 0 0 0 0 0 0 0 0 0 0 0 0
0 0 0 0 0 0 0 0 0 0 0 0 0 0 0 0 0 0 0 0 0 0 0 0 0 0 0
-0 0 0 0 0 0 0 0 0 0 0 0 0 0 0 0 0 0 0 0 0 0 0 0 0 0 0
0 -0 0 0 0 0 0 0 0 0 0 0 0 0 0 0 0 0 0 0 0 0 0 0 0 0 0
-0 0 0 0 0 0 0 0 0 0 0 0 0 0 0 0 0 0 0 0 0 0 0 0 0 0 0
0 0 0 0 0 0 0 0 0 0 0 0 0 0 0 0 0 0 0 0 0 0 0 0 0 0 0
0 0 0 0 0 0 0 0 0 0 0 0 0 0 0 0 0 0 0 0 0 0 0 0 0 0 0
0 0 0 0 0 0 0 0 0 0 0 0 0 0 0 0 0 0 0 0 0 0 0 0 0 0 0
0 0 0 0 -0 0 0 0 0 0 0 0 0 0 0 0 0 0 0 0 0 0 0 0 0 0 0
Wind_Speed_500mb
47 44 41 36 31 25 28 29 31 34 36 38 51 48 36 36 32 30 24 20 18 16 16 15 14 16 17
46 43 42 36 29 26 28 27 28 37 43 44 45 35 35 34 32 32 30 25 20 13 13 12 9 9 10
48 44 40 33 28 30 31 30 29 37 44 44 43 36 34 35 35 35 35 32 23 15 9 9 8 8 9
51 49 44 35 30 35 35 34 31 32 43 42 44 40 31 39 38 36 33 33 26 16 5 8 6 4 8
52 49 43 36 35 37 38 36 35 33 41 45 46 38 37 38 38 39 34 31 27 16 8 5 14 1 7
51 49 41 38 42 44 43 40 40 34 37 46 46 43 37 39 36 38 35 33 27 20 13 4 8 10 10
47 41 38 39 44 46 45 41 42 37 35 38 41 42 38 37 38 38 33 32 25 20 15 14 9 16 17
51 42 38 41 43 45 46 44 43 40 37 36 36 35 36 35 38 39 36 32 29 22 19 18 13 24 23
19 44 43 42 48 44 44 45 45 44 40 34 34 34 29 31 31 34 38 33 33 27 24 22 25 29 25
47 14 45 48 50 51 50 48 44 45 42 38 36 34 31 31 33 35 37 39 34 31 28 27 23 26 24
26 23 15 50 56 57 54 52 50 48 43 40 38 38 36 36 33 37 38 37 35 32 33 29 29 29 28
11 17 15 14 22 63 58 58 53 48 46 45 43 45 42 42 36 38 37 37 36 31 33 35 35 34 33
16 13 18 17 19 36 43 71 63 50 47 46 44 46 48 45 42 39 42 41 41 37 38 37 36 38 38
8 11 10 11 17 20 20 36 61 55 52 48 46 46 48 49 49 46 45 49 46 40 41 35 29 27 26
20 13 17 13 13 23 5 10 49 52 54 53 53 49 48 49 53 50 46 47 47 44 42 32 11 13 7
22 16 24 26 23 18 20 12 35 27 68 58 54 50 44 43 46 46 43 39 39 44 44 46 40 36 15
Wind_Direction_500mb
191 189 192 191 191 200 203 198 191 182 164 168 171 169 161 153 148 142 144 144 123 123 117 107 87 76 79
196 194 192 193 194 199 197 180 176 173 167 171 172 169 169 159 157 152 150 149 130 121 109 95 90 86 64
195 195 193 194 196 192 185 175 170 172 174 173 178 175 171 167 166 162 158 156 143 120 62 73 83 95 61
193 193 195 202 204 200 192 185 173 171 177 175 179 183 174 170 169 169 166 161 151 131 43 6 18 53 86
196 199 201 201 203 201 195 191 183 174 178 180 181 183 169 172 173 173 174 168 160 157 141 334 345 34 3
202 204 204 208 201 194 193 192 191 182 176 180 190 189 180 176 183 179 176 173 168 175 168 241 321 296 317
201 211 214 211 200 191 195 197 197 191 182 179 186 195 197 192 183 179 182 185 189 192 209 205 259 281 279
190 203 207 205 196 195 199 199 199 199 191 185 183 191 197 200 194 193 192 196 201 210 236 235 261 279 274
166 201 204 200 198 203 201 198 201 196 198 199 192 188 194 192 193 196 193 201 207 220 230 247 268 271 267
315 301 216 209 206 205 199 201 201 200 202 203 211 207 194 194 195 192 192 202 209 217 230 249 256 262 266
305 307 297 214 210 208 204 202 205 204 203 208 212 211 209 203 205 206 202 208 215 226 237 246 263 269 278
212 311 283 254 235 213 210 205 207 208 210 215 217 217 216 211 211 219 222 219 225 231 240 246 257 264 270
170 195 204 205 263 222 215 209 203 211 215 217 217 216 219 224 224 227 229 227 229 230 240 251 260 266 269
264 165 187 195 201 244 201 220 196 202 211 224 223 220 223 227 227 230 237 232 232 237 245 253 271 277 275
260 222 211 193 176 198 235 152 200 209 216 218 221 224 225 229 231 234 236 235 237 238 240 237 249 254 291
261 238 240 225 223 192 204 214 186 219 228 219 214 219 225 228 230 233 237 238 238 240 243 243 245 255 282
Wind_Speed_850mb
47 44 41 36 31 25 28 29 31 34 36 38 51 48 36 36 32 30 24 20 18 16 16 15 14 16 17
46 43 42 36 29 26 28 27 28 37 43 44 45 35 35 34 32 32 30 25 20 13 13 12 9 9 10
48 44 40 33 28 30 31 30 29 37 44 44 43 36 34 35 35 35 35 32 23 15 9 9 8 8 9
51 49 44 35 30 35 35 34 31 32 43 42 44 40 31 39 38 36 33 33 26 16 5 8 6 4 8
52 49 43 36 35 37 38 36 35 33 41 45 46 38 37 38 38 39 34 31 27 16 8 5 14 1 7
51 49 41 38 42 44 43 40 40 34 37 46 46 43 37 39 36 38 35 33 27 20 13 4 8 10 10
47 41 38 39 44 46 45 41 42 37 35 38 41 42 38 37 38 38 33 32 25 20 15 14 9 16 17
51 42 38 41 43 45 46 44 43 40 37 36 36 35 36 35 38 39 36 32 29 22 19 18 13 24 23
19 44 43 42 48 44 44 45 45 44 40 34 34 34 29 31 31 34 38 33 33 27 24 22 25 29 25
47 14 45 48 50 51 50 48 44 45 42 38 36 34 31 31 33 35 37 39 34 31 28 27 23 26 24
26 23 15 50 56 57 54 52 50 48 43 40 38 38 36 36 33 37 38 37 35 32 33 29 29 29 28
11 17 15 14 22 63 58 58 53 48 46 45 43 45 42 42 36 38 37 37 36 31 33 35 35 34 33
16 13 18 17 19 36 43 71 63 50 47 46 44 46 48 45 42 39 42 41 41 37 38 37 36 38 38
8 11 10 11 17 20 20 36 61 55 52 48 46 46 48 49 49 46 45 49 46 40 41 35 29 27 26
20 13 17 13 13 23 5 10 49 52 54 53 53 49 48 49 53 50 46 47 47 44 42 32 11 13 7
22 16 24 26 23 18 20 12 35 27 68 58 54 50 44 43 46 46 43 39 39 44 44 46 40 36 15
Wind_Direction_850mb
191 189 192 191 191 200 203 198 191 182 164 168 171 169 161 153 148 142 144 144 123 123 117 107 87 76 79
196 194 192 193 194 199 197 180 176 173 167 171 172 169 169 159 157 152 150 149 130 121 109 95 90 86 64
195 195 193 194 196 192 185 175 170 172 174 173 178 175 171 167 166 162 158 156 143 120 62 73 83 95 61
193 193 195 202 204 200 192 185 173 171 177 175 179 183 174 170 169 169 166 161 151 131 43 6 18 53 86
196 199 201 201 203 201 195 191 183 174 178 180 181 183 169 172 173 173 174 168 160 157 141 334 345 34 3
202 204 204 208 201 194 193 192 191 182 176 180 190 189 180 176 183 179 176 173 168 175 168 241 321 296 317
201 211 214 211 200 191 195 197 197 191 182 179 186 195 197 192 183 179 182 185 189 192 209 205 259 281 279
190 203 207 205 196 195 199 199 199 199 191 185 183 191 197 200 194 193 192 196 201 210 236 235 261 279 274
166 201 204 200 198 203 201 198 201 196 198 199 192 188 194 192 193 196 193 201 207 220 230 247 268 271 267
315 301 216 209 206 205 199 201 201 200 202 203 211 207 194 194 195 192 192 202 209 217 230 249 256 262 266
305 307 297 214 210 208 204 202 205 204 203 208 212 211 209 203 205 206 202 208 215 226 237 246 263 269 278
212 311 283 254 235 213 210 205 207 208 210 215 217 217 216 211 211 219 222 219 225 231 240 246 257 264 270
170 195 204 205 263 222 215 209 203 211 215 217 217 216 219 224 224 227 229 227 229 230 240 251 260 266 269
264 165 187 195 201 244 201 220 196 202 211 224 223 220 223 227 227 230 237 232 232 237 245 253 271 277 275
260 222 211 193 176 198 235 152 200 209 216 218 221 224 225 229 231 234 236 235 237 238 240 237 249 254 291
261 238 240 225 223 192 204 214 186 219 228 219 214 219 225 228 230 233 237 238 238 240 243 243 245 255 282